Location: B?dimalle
(17.1788°N, 80.5377°E)
Time: 09:52:10
(UTC+00:00)

Courier 1B Rocket - Pass Details

Date: 12 December 2025
Orbit: 920 x 1201 km, 28.2° (Epoch: 25 January)

Event Time Altitude Azimuth Distance (km) Brightness Sun altitude
Rises 15:25:50 0° 244° (WSW) 4,087 9.0 -46.1°
Reaches altitude 10° 15:28:41 10° 244° (WSW) 3,125 8.2 -46.8°
Enters shadow 15:31:38 26° 244° (WSW) 2,173 7.1 -47.5°
